Overview Statistics Trail Chart Weather Telemetry Raw packets
 

This is the latest recevied weather packets stored in our database for station/object GBTWP-2. If no packets are shown the sender has not sent any weather packets the latest 10 day(s).

<< 32 33 34 35 36 37 38 >>
Time Temp. Humidity Pressure Rain* Wind** Luminosity Snow
1788460921 22.78° C 91% 1016.4 hPa 0 mm - 20 W/m² -
1788460620 22.78° C 90% 1016.9 hPa 0 mm - 22 W/m² -
1788460320 22.78° C 90% 1017 hPa 0 mm - 17 W/m² -
1788460020 22.78° C 90% 1017.3 hPa 0 mm - 16 W/m² -
1788459719 23.33° C 91% 1017.9 hPa 0 mm - 4 W/m² -
1788459420 23.33° C 91% 1017 hPa 0 mm - 15 W/m² -
1788459119 23.33° C 90% 1016.4 hPa 0 mm - 22 W/m² -
1788458820 23.33° C 88% 1016.7 hPa 0 mm - 23 W/m² -
1788458519 23.89° C 87% 1016.6 hPa 0 mm - 28 W/m² -
1788458220 23.89° C 86% 1016.4 hPa 0 mm - 46 W/m² -
1788457919 24.44° C 83% 1016.5 hPa 0 mm - 69 W/m² -
1788457620 24.44° C 83% 1016.5 hPa 0 mm - 69 W/m² -
1788457319 24.44° C 83% 1016.5 hPa 0 mm - 88 W/m² -
1788457020 24.44° C 83% 1016.4 hPa 0 mm - 175 W/m² -
1788456720 24.44° C 83% 1016.6 hPa 0 mm - 205 W/m² -
1788456421 24.44° C 86% 1016.6 hPa 0 mm - 217 W/m² -
1788456120 24.44° C 85% 1016.5 hPa 0 mm - 198 W/m² -
1788455820 24.44° C 84% 1016.8 hPa 0 mm - 214 W/m² -
1788455520 23.89° C 84% 1016.8 hPa 0 mm - 212 W/m² -
1788455220 23.89° C 86% 1016.7 hPa 0 mm - 273 W/m² -
1788454940 23.33° C 89% 1016.5 hPa 0 mm - 317 W/m² -
1788454620 22.78° C 88% 1016.9 hPa 0 mm - 372 W/m² -
1788454320 22.22° C 89% 1016.7 hPa 0 mm - 270 W/m² -
1788454020 22.22° C 91% 1016.8 hPa 0 mm - 285 W/m² -
1788453720 21.67° C 92% 1016.8 hPa 0 mm - 261 W/m² -

* Rain latest hour (hover to see other rain measurements)
** Current wind speed in m/s (hover to see current wind gust speed)